Regional Weather Roundup
Issued by NWS Little Rock, AR

Home | Current Version | Previous Version | Graphics & Text | Print | Product List | Glossary On
Versions: 1 2 3 4 5 6 7 8 9 10 11 12 13 14 15 16 17 18 19 20 21 22 23 24 25 26 27 28 29 30 31 32 33 34 35 36 37 38 39 40 41 42 43 44 45 46 47 48
000
ASUS44 KLZK 241905
RWRLZK

WEATHER ROUNDUP FOR ARKANSAS
NATIONAL WEATHER SERVICE LITTLE ROCK AR
100 PM CST SAT JAN 24 2015

NOTE: "FAIR" INDICATES FEW OR NO CLOUDS BELOW 12,000 FEET WITH NO
SIGNIFICANT WEATHER AND/OR OBSTRUCTIONS TO VISIBILITY.

ARZ001-003-010-029-242000-
NORTHWEST ARKANSAS

CITY           SKY/WX    TMP DP  RH WIND       PRES   REMARKS
FAYETTEVILLE   SUNNY     51  32  48 NW6       30.00F
FORT SMITH     SUNNY     51  31  46 W12       30.04F
HARRISON       SUNNY     54  30  40 NW12G18   29.95F
BENTONVILLE    SUNNY     50  32  50 W12       30.00F
ROGERS         SUNNY     50  33  52 W9        29.99F
HIGHFILL       SUNNY     51  32  48 W9        29.99F
SPRINGDALE     SUNNY     50  32  50 W5        30.01F
$$

ARZ004-005-016-242000-
NORTH CENTRAL ARKANSAS

CITY           SKY/WX    TMP DP  RH WIND       PRES   REMARKS
BATESVILLE     SUNNY     57  25  28 NW8       29.94F
FLIPPIN        SUNNY     55  30  38 W9        29.95F
MTN HOME       SUNNY     51  29  42 W9        29.94F
$$

ARZ040-041-242000-
WEST CENTRAL ARKANSAS

CITY           SKY/WX    TMP DP  RH WIND       PRES   REMARKS
MENA           SUNNY     59  34  38 N5        30.01F
MOUNT IDA      SUNNY     59  26  28 NW9       29.98F
$$

ARZ009-017-025-026-028-242000-
NORTHEAST ARKANSAS

CITY           SKY/WX    TMP DP  RH WIND       PRES   REMARKS
JONESBORO      SUNNY     50  31  48 W12       29.94F
NEWPORT        SUNNY     57  26  30 W13       29.96F
WALNUT RIDGE   SUNNY     54  28  37 SW10      29.93F
BLYTHEVILLE    SUNNY     50  32  50 SW14G21   29.93F
$$

ARZ022-023-033-042-044-242000-
CENTRAL ARKANSAS

CITY           SKY/WX    TMP DP  RH WIND       PRES   REMARKS
LITTLE ROCK    SUNNY     58  26  29 W10       29.99F
N LITTLE ROCK  SUNNY     55  31  41 SW9G16    29.99F
JACKSONVILLE   SUNNY     56  29  36 W10G17    29.98F
SEARCY         SUNNY     55  29  36 W9        29.99F
HOT SPRINGS    SUNNY     58  27  30 VRB6      30.00F
RUSSELLVILLE   SUNNY     54  29  38 W12       29.99F
CLINTON        FAIR      57  28  33 SW3       29.97F
$$

ARZ036-242000-
EAST ARKANSAS

CITY           SKY/WX    TMP DP  RH WIND       PRES   REMARKS
WEST MEMPHIS   SUNNY     52  35  52 SW14      29.96F
$$

ARZ050-053-066-070-073-242000-
SOUTHWEST ARKANSAS

CITY           SKY/WX    TMP DP  RH WIND       PRES   REMARKS
ARKADELPHIA    FAIR      57  35  43 SW9       30.02F
CAMDEN         SUNNY     59  32  36 MISG      30.06F
TEXARKANA      SUNNY     57  31  37 W10       30.06F
EL DORADO      SUNNY     55  32  41 SW13      30.05F
DE QUEEN       SUNNY     55  33  43 SW7       30.02F
$$

ARZ056-057-069-242000-
SOUTHEAST ARKANSAS

CITY           SKY/WX    TMP DP  RH WIND       PRES   REMARKS
PINE BLUFF     SUNNY     57  29  34 SW9       30.00F
STUTTGART      SUNNY     55  34  44 SW13      30.00F
MONTICELLO     SUNNY     54  33  45 VRB7      30.03F

$$





USA.gov is the U.S. government's official web portal to all federal, state and local government web resources and services.